| time (UTC) | temp C | wind direction | speed KPH | gust KPH | rain 1hr cm | rain 24hr cm | rain mn cm | humidity % | barometer mb |
| 20260506070805 | 10 | 180 | 4.8 | 0.0 | 0.03 | 0.00 | 0.00 | 10 | 1005.1 |
| 20260506061601 | 10 | 90 | 1.6 | 0.0 | 0.00 | 0.00 | 0.00 | 10 | 1005.3 |
| 20260506060536 | 10 | 90 | 1.6 | 0.0 | 0.00 | 0.00 | 0.00 | 10 | 1005.2 |
| 20260506051332 | 10 | 90 | 1.6 | 0.0 | 0.00 | 0.00 | 0.00 | 10 | 1005.3 |
| 20260506050307 | 10 | 180 | 1.6 | 0.0 | 0.00 | 0.00 | 0.00 | 10 | 1005.2 |
| 20260506044217 | 10 | 0 | 1.6 | 0.0 | 0.00 | 0.00 | 0.00 | 10 | 1005.1 |
| 20260506042128 | 10 | 90 | 1.6 | 0.0 | 0.00 | 0.00 | 0.00 | 10 | 1004.9 |
| 20260506041103 | 10 | 0 | 1.6 | 0.0 | 0.00 | 0.00 | 0.00 | 10 | 1004.8 |
| 20260506040038 | 10 | 90 | 1.6 | 0.0 | 0.00 | 0.00 | 0.00 | 10 | 1004.7 |
| 20260506035013 | 10 | 45 | 3.2 | 0.0 | 0.00 | 0.00 | 0.00 | 10 | 1004.8 |
| 20260506033948 | 10 | 90 | 3.2 | 0.0 | 0.00 | 0.00 | 0.00 | 10 | 1004.7 |
| 20260506032924 | 10 | 90 | 3.2 | 0.0 | 0.00 | 0.00 | 0.00 | 10 | 1004.7 |
| 20260506031859 | 10 | 180 | 3.2 | 0.0 | 0.00 | 0.00 | 0.00 | 10 | 1004.6 |
| 20260506030834 | 10 | 0 | 1.6 | 0.0 | 0.00 | 0.00 | 0.00 | 10 | 1004.6 |
| 20260506023720 | 10 | 0 | 1.6 | 0.0 | 0.00 | 0.00 | 0.00 | 10 | 1004.8 |
| 20260506022655 | 10 | 45 | 1.6 | 0.0 | 0.00 | 0.00 | 0.00 | 10 | 1004.8 |
| 20260506021630 | 10 | 0 | 3.2 | 0.0 | 0.00 | 0.00 | 0.00 | 10 | 1004.8 |
| 20260506020605 | 10 | 180 | 1.6 | 0.0 | 0.00 | 0.00 | 0.00 | 10 | 1004.9 |
| 20260506015540 | 10 | 90 | 1.6 | 0.0 | 0.00 | 0.00 | 0.00 | 10 | 1004.9 |
| 20260506014516 | 10 | 90 | 3.2 | 0.0 | 0.00 | 0.00 | 0.00 | 10 | 1004.9 |
| 20260506013451 | 10 | 90 | 6.4 | 0.0 | 0.00 | 0.00 | 0.00 | 10 | 1005.0 |
| 20260506012426 | 10 | 90 | 1.6 | 0.0 | 0.00 | 0.00 | 0.00 | 10 | 1005.1 |
| 20260506011401 | 10 | 0 | 1.6 | 0.0 | 0.00 | 0.00 | 0.00 | 10 | 1005.3 |
| 20260506010336 | 10 | 45 | 1.6 | 0.0 | 0.00 | 0.00 | 0.00 | 10 | 1005.2 |
| 20260506005311 | 10 | 3.2 | 0.0 | 0.00 | 0.00 | 0.00 | 10 | 1005.3 | |
| 20260505235043 | 10 | 90 | 4.8 | 0.0 | 0.00 | 0.00 | 0.00 | 10 | 1005.8 |
| 20260505234018 | 10 | 180 | 1.6 | 0.0 | 0.00 | 0.00 | 0.00 | 10 | 1005.9 |
| 20260505231928 | 10 | 0 | 1.6 | 0.0 | 0.00 | 0.00 | 0.00 | 10 | 1005.8 |
| 20260505230903 | 10 | 90 | 1.6 | 0.0 | 0.00 | 0.00 | 0.00 | 10 | 1005.7 |
| 20260505224814 | 10 | 0 | 1.6 | 0.0 | 0.00 | 0.00 | 0.00 | 10 | 1005.6 |
| 20260505223749 | 10 | 45 | 1.6 | 0.0 | 0.00 | 0.00 | 0.00 | 10 | 1005.6 |
| 20260505222724 | 10 | 0 | 3.2 | 0.0 | 0.00 | 0.00 | 0.00 | 10 | 1005.6 |
| 20260505214545 | 10 | 0 | 1.6 | 0.0 | 0.00 | 0.00 | 0.00 | 10 | 1005.9 |
| 20260505212455 | 10 | 45 | 1.6 | 0.0 | 0.00 | 0.00 | 0.00 | 10 | 1006.0 |
| 20260505210406 | 10 | 0 | 0.0 | 0.0 | 0.00 | 0.00 | 0.00 | 10 | 1005.9 |
| 20260505204316 | 10 | 45 | 1.6 | 0.0 | 0.00 | 0.00 | 0.00 | 10 | 1006.1 |
| 20260505202226 | 10 | 0 | 1.6 | 0.0 | 0.00 | 0.00 | 0.00 | 10 | 1006.0 |
| 20260505201202 | 10 | 270 | 4.8 | 0.0 | 0.00 | 0.00 | 0.00 | 10 | 1006.1 |
| 20260505193022 | 10 | 45 | 0.0 | 0.0 | 0.03 | 0.00 | 0.00 | 10 | 1005.5 |
| 20260505191958 | 10 | 0 | 1.6 | 0.0 | 0.03 | 0.00 | 0.00 | 10 | 1005.5 |
| 20260505185908 | 10 | 90 | 3.2 | 0.0 | 0.03 | 0.00 | 0.00 | 10 | 1005.8 |
| 20260505184843 | 10 | 45 | 6.4 | 0.0 | 0.03 | 0.00 | 0.00 | 10 | 1005.6 |
| 20260505183818 | 10 | 45 | 3.2 | 0.0 | 0.00 | 0.00 | 0.00 | 10 | 1005.9 |
| 20260505182754 | 10 | 45 | 3.2 | 0.0 | 0.79 | 0.00 | 0.00 | 10 | 1006.2 |
| 20260505181729 | 10 | 45 | 1.6 | 0.0 | 0.69 | 0.00 | 0.00 | 10 | 1006.5 |
| 20260505180704 | 10 | 90 | 1.6 | 0.0 | 0.56 | 0.00 | 0.00 | 10 | 1006.8 |
| 20260505175639 | 10 | 90 | 3.2 | 0.0 | 0.46 | 0.00 | 0.00 | 10 | 1006.7 |
| 20260505174614 | 10 | 90 | 6.4 | 0.0 | 0.28 | 0.00 | 0.00 | 10 | 1006.7 |
| 20260505173550 | 11 | 45 | 6.4 | 0.0 | 0.00 | 0.00 | 0.00 | 10 | 1006.3 |
| 20260505172525 | 13 | 90 | 3.2 | 0.0 | 0.00 | 0.00 | 0.00 | 10 | 1005.6 |
| 20260505171500 | 14 | 45 | 1.6 | 0.0 | 0.00 | 0.00 | 0.00 | 10 | 1004.6 |
| 20260505170435 | 14 | 45 | 1.6 | 0.0 | 0.00 | 0.00 | 0.00 | 10 | 1004.7 |
| 20260505165410 | 14 | 135 | 6.4 | 0.0 | 0.00 | 0.00 | 0.00 | 10 | 1004.7 |
| 20260505164345 | 15 | 45 | 1.6 | 0.0 | 0.00 | 0.00 | 0.00 | 10 | 1004.8 |
| 20260505163321 | 15 | 45 | 3.2 | 0.0 | 0.00 | 0.00 | 0.00 | 10 | 1004.8 |
| 20260505162256 | 15 | 45 | 1.6 | 0.0 | 0.00 | 0.00 | 0.00 | 10 | 1005.1 |
| 20260505161231 | 15 | 45 | 3.2 | 0.0 | 0.00 | 0.00 | 0.00 | 10 | 1005.2 |
| 20260505160206 | 15 | 90 | 1.6 | 0.0 | 0.00 | 0.00 | 0.00 | 10 | 1005.3 |
| 20260505152027 | 15 | 0 | 1.6 | 0.0 | 0.13 | 0.00 | 0.00 | 10 | 1005.6 |
| 20260505151002 | 15 | 45 | 1.6 | 0.0 | 0.13 | 0.00 | 0.00 | 10 | 1005.7 |
| 20260505124416 | 20 | 45 | 3.2 | 0.0 | 0.00 | 0.00 | 0.00 | 75 | 1006.4 |
| 20260505123352 | 20 | 90 | 3.2 | 0.0 | 0.00 | 0.00 | 0.00 | 78 | 1006.5 |
| 20260505122327 | 19 | 45 | 3.2 | 0.0 | 0.00 | 0.00 | 0.00 | 79 | 1006.6 |
| 20260505121303 | 20 | 90 | 1.6 | 0.0 | 0.00 | 0.00 | 0.00 | 72 | 1006.7 |
| 20260505120238 | 21 | 90 | 3.2 | 0.0 | 0.00 | 0.00 | 0.00 | 72 | 1006.7 |
| 20260505115213 | 20 | 45 | 3.2 | 0.0 | 0.00 | 0.00 | 0.00 | 71 | 1006.8 |
| 20260505114149 | 18 | 45 | 1.6 | 0.0 | 0.00 | 0.00 | 0.00 | 74 | 1006.9 |
| 20260505113124 | 19 | 45 | 1.6 | 0.0 | 0.00 | 0.00 | 0.00 | 72 | 1006.9 |
| 20260505112059 | 20 | 45 | 1.6 | 0.0 | 0.00 | 0.00 | 0.00 | 74 | 1007.1 |
| 20260505111035 | 18 | 0 | 3.2 | 0.0 | 0.00 | 0.00 | 0.00 | 75 | 1007.1 |
| 20260505101831 | 18 | 135 | 3.2 | 0.0 | 0.00 | 0.00 | 0.00 | 72 | 1007.5 |
| 20260505100807 | 19 | 180 | 3.2 | 0.0 | 0.00 | 0.00 | 0.00 | 72 | 1007.6 |
| 20260505095742 | 20 | 90 | 3.2 | 0.0 | 0.00 | 0.00 | 0.00 | 67 | 1007.6 |
| 20260505094717 | 21 | 180 | 1.6 | 0.0 | 0.00 | 0.00 | 0.00 | 66 | 1007.7 |
| 20260505093653 | 20 | 135 | 1.6 | 0.0 | 0.00 | 0.00 | 0.00 | 71 | 1007.7 |
| 20260505092628 | 20 | 0 | 1.6 | 0.0 | 0.00 | 0.00 | 0.00 | 75 | 1007.8 |
| 20260505091603 | 19 | 45 | 1.6 | 0.0 | 0.00 | 0.00 | 0.00 | 84 | 1007.9 |
| 20260505090539 | 18 | 45 | 3.2 | 0.0 | 0.03 | 0.00 | 0.00 | 86 | 1008.0 |
| 20260505082400 | 17 | 90 | 0.0 | 0.0 | 0.00 | 0.00 | 0.00 | 10 | 1008.3 |
| 20260505081335 | 16 | 0 | 3.2 | 0.0 | 0.00 | 0.00 | 0.00 | 10 | 1008.4 |
| 20260505080310 | 16 | 135 | 1.6 | 0.0 | 0.00 | 0.00 | 0.00 | 10 | 1008.3 |
| 20260505075245 | 15 | 0 | 3.2 | 0.0 | 0.00 | 0.00 | 0.00 | 10 | 1008.4 |
| 20260505073156 | 15 | 180 | 1.6 | 0.0 | 0.00 | 0.00 | 0.00 | 10 | 1008.5 |
| 20260505072131 | 15 | 45 | 3.2 | 0.0 | 0.00 | 0.00 | 0.00 | 10 | 1008.5 |
| 20260505071106 | 14 | 135 | 3.2 | 0.0 | 0.00 | 0.00 | 0.00 | 10 | 1008.5 |